[[{"header":{"parameterUnit":"m.s-1","parameterCategory":1,"la1":30.2991,"la2":30.254,"lo1":-89.0895,"lo2":-89.0444,"dy":0.0017,"dx":0.0017,"nx":28,"ny":28,"refTime":"2024-04-21T03:00:00:Z","depth":0,"parameterNumber":2,"parameterNumberName":"U-component_of_WINDS"},"data":[0,0,0,0,0,0,0,0,0,0,0,0,0,0,0,0,0,0,0,0,0,0,0,0,0,0,0,0,0,0,0,0,0,0,0,0,0,0,0,0,0,0,0,0,0,0,0,0,0,0,0,0,0,0,0,0,0,0,1.4747,1.4749,0,1.488,1.4881,1.4883,1.4938,1.4938,1.4938,1.4938,1.5069,1.5073,1.5077,0,0,0,0,0,0,0,0,0,0,0,0,0,1.4538,1.4542,1.4747,1.4749,1.4751,1.488,1.4882,1.4883,1.4938,1.4938,1.4938,1.4937,1.5068,1.5073,1.5077,0,0,0,0,0,0,0,0,0,0,0,0,0,1.4646,1.4543,1.4747,1.4794,1.4799,1.4879,1.4882,1.4884,1.4938,1.4938,1.4938,1.4937,1.5067,1.5072,1.5078,1.512,0,0,1.5095,1.5097,0,0,0,0,0,0,0,0,1.464,1.4653,1.4785,1.4791,1.4797,1.4892,1.4856,1.4963,1.4938,1.4885,1.4938,1.4937,1.5011,1.5021,1.5046,1.5126,1.5132,1.5095,1.5099,1.5101,1.5103,0,0,0,0,0,0,0,1.4632,1.4648,1.48,1.4787,1.4794,1.4807,1.4822,1.4877,1.4948,1.489,1.4894,1.491,1.5014,1.5041,1.505,1.5134,1.5095,1.51,1.5104,1.5106,1.5256,1.5257,0,0,0,0,0,0,1.4617,1.4641,1.4795,1.4804,1.4716,1.4811,1.4828,1.4862,1.4948,1.4961,1.491,1.4912,1.5031,1.5043,1.5055,1.5111,1.5101,1.5106,1.511,1.5255,1.5256,1.5257,0,0,0,0,0,0,1.4613,1.4631,1.479,1.4724,1.4745,1.4815,1.4853,1.4865,1.4892,1.4963,1.4976,1.4925,1.5032,1.5047,1.5104,1.5116,1.5109,1.5114,1.5255,1.5256,1.5256,1.5222,0,0,0,0,0,0,1.4607,1.4629,1.4646,1.4724,1.4748,1.4838,1.4854,1.4868,1.4902,1.4906,1.498,1.4992,1.5032,1.5095,1.5109,1.5123,1.5118,1.5254,1.5255,1.5256,1.5222,1.5222,1.5221,0,0,0,0,0,1.4599,1.463,1.4647,1.4665,1.4772,1.4838,1.4852,1.4899,1.4903,1.4921,1.4966,1.499,1.5112,1.5101,1.5117,1.5133,1.5253,1.5255,1.5256,1.5223,1.5222,1.5221,0,0,0,0,0,0,1.455,1.4641,1.4661,1.4718,1.477,1.4848,1.4871,1.4897,1.4948,1.4949,1.5004,1.502,1.5073,1.5109,1.5094,1.5179,1.5185,1.5189,1.5154,1.5153,1.5153,1.5143,1.5123,0,0,0,0,0,1.4546,1.4594,1.467,1.4714,1.4739,1.4801,1.4831,1.4863,1.4919,1.4941,1.4991,1.5043,1.5094,1.5125,1.5176,1.5228,1.5245,1.5247,1.5246,1.5245,1.5249,1.528,1.5281,1.5261,1.5261,1.5261,0,0,1.4538,1.4594,1.462,1.4705,1.475,1.4797,1.4819,1.4868,1.4903,1.4948,1.5006,1.5044,1.5106,1.5161,1.5187,1.5192,1.5258,1.5247,1.5246,1.525,1.5281,1.5283,1.5285,1.5262,1.5262,1.5262,0,0,1.4549,1.4595,1.4637,1.4682,1.4749,1.479,1.48,1.4874,1.4902,1.4961,1.4996,1.5038,1.5123,1.5166,1.5199,1.5227,1.525,1.5241,1.5238,1.5267,1.5269,1.527,1.528,1.5283,1.5245,1.5245,1.5245,0,1.453,1.4604,1.4655,1.4703,1.4739,1.4784,1.4826,1.4866,1.4945,1.4969,1.4973,1.5083,1.5127,1.5193,1.52,1.5225,1.5238,1.5233,1.5265,1.5267,1.5269,1.5279,1.5283,1.5243,1.5243,1.5243,1.5244,0,1.4578,1.4628,1.4654,1.4732,1.4771,1.4815,1.4872,1.4905,1.4934,1.4974,1.5033,1.5089,1.5152,1.517,1.5197,1.524,1.5241,1.5254,1.5261,1.5269,1.5279,1.5283,1.5241,1.5241,1.5242,1.5242,0,0,1.456,1.4667,1.4675,1.4711,1.479,1.4829,1.4875,1.4938,1.4966,1.5019,1.5059,1.5131,1.5145,1.5182,1.5215,1.5241,1.5259,1.5251,1.5254,1.5251,1.531,1.5299,1.5303,1.5276,1.5277,1.5277,1.5305,0,1.4581,1.4668,1.4716,1.4782,1.4829,1.4873,1.4913,1.4965,1.5004,1.5049,1.5091,1.5142,1.5155,1.5178,1.5206,1.5251,1.5272,1.525,1.5313,1.5314,1.5296,1.5308,1.5297,1.5321,1.5309,1.531,1.531,0,1.4617,1.4671,1.4743,1.4817,1.4838,1.4874,1.4936,1.4978,1.5038,1.5064,1.5107,1.514,1.519,1.5193,1.5262,1.5246,1.5275,1.5301,1.5303,1.531,1.5313,1.5316,1.5329,1.5332,1.5317,1.5317,1.5316,0,1.4597,1.4688,1.4743,1.4773,1.486,1.4884,1.4921,1.4981,1.5015,1.5069,1.5092,1.515,1.5182,1.5225,1.5273,1.5271,1.5338,1.5345,1.5361,1.5359,1.5372,1.5371,1.539,1.5391,1.539,1.539,1.539,0,1.4615,1.4657,1.4736,1.477,1.4818,1.4872,1.4918,1.4958,1.5011,1.5053,1.5093,1.5131,1.5192,1.5237,1.5274,1.5326,1.534,1.5362,1.5371,1.5359,1.5356,1.5378,1.5377,1.5391,1.5391,1.5391,1.5391,0,1.4602,1.4656,1.4719,1.4797,1.4817,1.4849,1.4916,1.495,1.4991,1.5043,1.5058,1.5123,1.5178,1.523,1.5304,1.5329,1.5381,1.5393,1.5361,1.5366,1.5379,1.5377,1.5413,1.5421,1.5416,1.5416,1.5416,0,1.461,1.4644,1.4726,1.4757,1.4794,1.4844,1.4881,1.4935,1.4971,1.5042,1.5067,1.5126,1.5176,1.5262,1.5315,1.5371,1.5385,1.5394,1.5394,1.538,1.5386,1.5383,1.5387,1.5393,1.5393,1.5392,1.5392,0,1.4619,1.4644,1.4696,1.4758,1.48,1.4851,1.4902,1.4925,1.499,1.5028,1.5086,1.5125,1.5201,1.5258,1.5321,1.5358,1.5386,1.5392,1.5399,1.5386,1.5366,1.5377,1.5359,1.5391,1.5391,1.5391,1.5391,1.5391,1.4617,1.4649,1.4712,1.4769,1.4814,1.4861,1.4897,1.4944,1.4994,1.5061,1.5089,1.5148,1.5207,1.5294,1.5331,1.5377,1.5383,1.5393,1.5395,1.5397,1.5394,1.5359,1.5389,1.5389,1.5389,1.5389,1.5389,0,1.4628,1.4671,1.4723,1.4795,1.4839,1.4862,1.4921,1.4956,1.5008,1.5061,1.511,1.5176,1.5233,1.529,1.5349,1.5375,1.5389,1.5389,1.5388,1.5396,1.5385,1.5374,1.5377,1.5377,1.5377,1.5377,1.5377,1.5377,1.4639,1.4695,1.4728,1.4807,1.485,1.4909,1.494,1.4984,1.5027,1.51,1.5148,1.5185,1.524,1.5304,1.5356,1.5372,1.5392,1.5388,1.5407,1.5396,1.5396,1.5397,1.5386,1.5392,1.5392,1.5413,1.5413,1.5414]},{"header":{"parameterUnit":"m.s-1","parameterCategory":1,"la1":30.2991,"la2":30.254,"lo1":-89.0895,"lo2":-89.0444,"dy":0.0017,"dx":0.0017,"nx":28,"ny":28,"refTime":"2024-04-21T03:00:00:Z","depth":0,"parameterNumber":3,"parameterNumberName":"V-component_of_WINDS"},"data":[0,0,0,0,0,0,0,0,0,0,0,0,0,0,0,0,0,0,0,0,0,0,0,0,0,0,0,0,0,0,0,0,0,0,0,0,0,0,0,0,0,0,0,0,0,0,0,0,0,0,0,0,0,0,0,0,0,0,3.647,3.647,0,3.6448,3.6448,3.6448,3.6382,3.6381,3.6379,3.6378,3.6354,3.6355,3.6356,0,0,0,0,0,0,0,0,0,0,0,0,0,3.6457,3.6457,3.647,3.647,3.647,3.6448,3.6448,3.6448,3.6382,3.6381,3.6379,3.6377,3.6354,3.6355,3.6356,0,0,0,0,0,0,0,0,0,0,0,0,0,3.6451,3.6457,3.647,3.6435,3.6431,3.6448,3.6448,3.6447,3.6383,3.6381,3.6378,3.6376,3.6354,3.6355,3.6356,3.6405,0,0,3.6359,3.6359,0,0,0,0,0,0,0,0,3.6452,3.6452,3.644,3.6437,3.6433,3.6416,3.6434,3.6433,3.6383,3.6401,3.6378,3.6375,3.6376,3.6375,3.6376,3.6404,3.6403,3.6359,3.636,3.636,3.636,0,0,0,0,0,0,0,3.6452,3.6452,3.6461,3.644,3.6436,3.642,3.6417,3.6434,3.6401,3.6399,3.6395,3.6393,3.6374,3.6375,3.6375,3.6403,3.6359,3.636,3.6361,3.6361,3.6472,3.6474,0,0,0,0,0,0,3.6458,3.6453,3.6462,3.6461,3.6438,3.6422,3.6418,3.6424,3.6401,3.6395,3.6395,3.639,3.6374,3.6374,3.6374,3.6431,3.636,3.6361,3.6362,3.647,3.6473,3.6475,0,0,0,0,0,0,3.6458,3.6459,3.6463,3.6456,3.6455,3.6424,3.6431,3.6424,3.6425,3.6397,3.6391,3.6402,3.6373,3.6372,3.6398,3.6429,3.6362,3.6363,3.6467,3.6471,3.6474,3.6546,0,0,0,0,0,0,3.6458,3.6459,3.6478,3.6457,3.6456,3.6488,3.6433,3.6425,3.6427,3.6421,3.6402,3.6397,3.6371,3.6397,3.6399,3.6429,3.6363,3.6464,3.6469,3.6473,3.654,3.6551,3.656,0,0,0,0,0,3.6457,3.6498,3.6479,3.648,3.6478,3.649,3.6489,3.6459,3.643,3.6448,3.6431,3.6398,3.6426,3.64,3.6402,3.6433,3.6462,3.6467,3.6472,3.6536,3.6549,3.656,0,0,0,0,0,0,3.6522,3.6495,3.6473,3.6508,3.6502,3.6479,3.6501,3.6473,3.6475,3.6469,3.643,3.6427,3.6459,3.6448,3.6421,3.6481,3.6439,3.6444,3.6486,3.6498,3.6508,3.651,3.6364,0,0,0,0,0,3.6541,3.6553,3.6528,3.6562,3.656,3.6531,3.6535,3.6513,3.6505,3.6501,3.6485,3.6479,3.6486,3.6492,3.6497,3.6539,3.6534,3.6561,3.6571,3.658,3.6585,3.6608,3.662,3.6492,3.6492,3.6492,0,0,3.6579,3.6566,3.6575,3.6575,3.6567,3.6581,3.6529,3.6546,3.6556,3.6504,3.6527,3.6516,3.6506,3.6541,3.6555,3.6533,3.662,3.6586,3.6593,3.6594,3.6615,3.6627,3.6638,3.6496,3.6495,3.6495,0,0,3.6656,3.6647,3.6674,3.6669,3.6659,3.664,3.6647,3.6628,3.6619,3.6642,3.6604,3.6616,3.6629,3.6624,3.6623,3.6701,3.6671,3.6704,3.6756,3.6779,3.6789,3.6797,3.6826,3.6837,3.6709,3.6709,3.671,0,3.6704,3.6724,3.6692,3.6712,3.6713,3.6668,3.6696,3.6692,3.6684,3.6686,3.6662,3.6679,3.6669,3.6702,3.6722,3.6722,3.6729,3.6705,3.679,3.6798,3.6806,3.6833,3.6844,3.6714,3.6713,3.6713,3.6712,0,3.6785,3.6799,3.6823,3.6817,3.6821,3.6845,3.6817,3.6825,3.6803,3.6787,3.6812,3.6799,3.6802,3.6808,3.6786,3.6839,3.6826,3.6797,3.6753,3.6823,3.6847,3.6857,3.6719,3.6718,3.6717,3.6716,0,0,3.69,3.6879,3.6888,3.6886,3.6872,3.6883,3.6905,3.6909,3.6917,3.6913,3.6932,3.6945,3.6918,3.6918,3.6895,3.6915,3.6979,3.6883,3.6882,3.6902,3.7038,3.7061,3.7073,3.6959,3.6961,3.6963,3.7039,0,3.6973,3.701,3.6983,3.7025,3.7039,3.6997,3.7017,3.7012,3.6998,3.7007,3.6992,3.7002,3.6966,3.6965,3.6983,3.6967,3.7006,3.6961,3.6976,3.6977,3.698,3.7086,3.7109,3.7182,3.7048,3.705,3.7051,0,3.7062,3.7065,3.7109,3.7095,3.7099,3.7117,3.7119,3.7129,3.7122,3.7111,3.7112,3.7084,3.7106,3.7064,3.7094,3.7064,3.7069,3.7062,3.7064,3.7064,3.7018,3.7089,3.7204,3.7215,3.7066,3.7065,3.7064,0,3.7143,3.7157,3.7185,3.7185,3.7169,3.7183,3.7177,3.7168,3.7173,3.7175,3.7177,3.7181,3.7184,3.7188,3.7163,3.7134,3.7196,3.7152,3.7187,3.7188,3.7202,3.7201,3.732,3.7205,3.7205,3.7204,3.7204,0,3.7227,3.7256,3.7222,3.7239,3.727,3.724,3.7272,3.7261,3.7254,3.7269,3.7234,3.7249,3.7214,3.7226,3.7206,3.7235,3.7236,3.7227,3.7222,3.7231,3.7232,3.7233,3.7227,3.7207,3.7207,3.7206,3.7206,0,3.7322,3.73,3.7328,3.7312,3.7309,3.7333,3.7319,3.7335,3.7319,3.7339,3.7342,3.7318,3.733,3.7305,3.7313,3.73,3.7341,3.7327,3.7343,3.7339,3.7377,3.7374,3.75,3.7516,3.7391,3.7392,3.7393,0,3.7377,3.7398,3.7385,3.7393,3.739,3.7403,3.7408,3.7379,3.7386,3.7381,3.7398,3.7407,3.7413,3.7434,3.7418,3.7424,3.7411,3.7455,3.7411,3.742,3.7412,3.7411,3.7414,3.7463,3.7465,3.7466,3.7467,0,3.7477,3.7466,3.7475,3.7481,3.7489,3.7491,3.7492,3.75,3.747,3.748,3.7492,3.7497,3.7507,3.7517,3.752,3.7514,3.7486,3.7481,3.749,3.7499,3.7508,3.7505,3.7368,3.7478,3.7477,3.7476,3.7476,3.7475,3.7554,3.7572,3.7566,3.7578,3.7576,3.7577,3.7592,3.758,3.759,3.7596,3.7579,3.7596,3.759,3.7592,3.7589,3.7602,3.7582,3.7595,3.7598,3.7602,3.7608,3.7506,3.7602,3.7602,3.7602,3.7601,3.7601,0,3.7653,3.7648,3.7659,3.7662,3.7672,3.7646,3.7646,3.7656,3.7671,3.7669,3.7676,3.7692,3.7702,3.7687,3.7695,3.7708,3.7696,3.7711,3.771,3.771,3.7625,3.7617,3.7721,3.7721,3.7721,3.7721,3.7721,3.7721,3.7706,3.7735,3.7724,3.7753,3.7747,3.7764,3.7767,3.7769,3.7767,3.7786,3.7795,3.7786,3.7779,3.7786,3.7794,3.779,3.7795,3.7815,3.7806,3.7727,3.7715,3.7704,3.7696,3.7816,3.7816,3.7889,3.789,3.7891]}]]